When you browse on this site, cookies collect data to enhance your experience and personalize the content and advertising you see.
Visit our Privacy Policy to learn more. By continuing to use the site, you agree to this use of cookies and data.
  • In Sweden
  • List of Countries
  • For 7 days
  • Water Temperature
  • Weather Map
  • Weather Widgets
  • user-avatar
    Login

    Hourly Weather Belikovo

    Today, 16 September, Monday

    Time Temperature Precipitation Wind Pressure Humidity
    00:00 +8°C° 0 mm 4 mps 741 mmHg 68%
    01:00 +8°C° 0 mm 4 mps 741 mmHg 67%
    02:00 +8°C° 0 mm 5 mps 740 mmHg 66%
    03:00 +8°C° 0 mm 5 mps 739 mmHg 67%
    04:00 +8°C° 0.5 mm 6 mps 739 mmHg 73%
    05:00 +8°C° 0.5 mm 7 mps 738 mmHg 80%
    06:00 +8°C° 0.5 mm 7 mps 738 mmHg 87%
    07:00 +8°C° 0.4 mm 7 mps 737 mmHg 85%
    08:00 +8°C° 0.4 mm 7 mps 736 mmHg 82%
    09:00 +9°C° 0.4 mm 7 mps 736 mmHg 80%
    10:00 +9°C° 0.1 mm 7 mps 735 mmHg 80%
    11:00 +9°C° 0.1 mm 7 mps 735 mmHg 80%
    12:00 +10°C° 0.1 mm 7 mps 734 mmHg 80%
    13:00 +10°C° 0.1 mm 6 mps 734 mmHg 80%
    14:00 +10°C° 0.1 mm 6 mps 734 mmHg 80%
    15:00 +10°C° 0.1 mm 6 mps 733 mmHg 80%
    16:00 +10°C° 0.1 mm 6 mps 733 mmHg 81%
    17:00 +10°C° 0.1 mm 6 mps 733 mmHg 82%
    18:00 +10°C° 0.1 mm 5 mps 733 mmHg 83%
    19:00 +10°C° 0 mm 6 mps 733 mmHg 84%
    20:00 +9°C° 0 mm 6 mps 734 mmHg 85%
    21:00 +9°C° 0 mm 6 mps 734 mmHg 86%
    22:00 +9°C° 0 mm 6 mps 734 mmHg 87%
    23:00 +9°C° 0 mm 5 mps 733 mmHg 89%

    Tomorrow, 17 September, Tuesday

    Time Temperature Precipitation Wind Pressure Humidity
    00:00 +8°C° 0 mm 5 mps 733 mmHg 90%
    01:00 +8°C° 0 mm 5 mps 733 mmHg 91%
    02:00 +8°C° 0 mm 5 mps 733 mmHg 91%
    03:00 +7°C° 0 mm 5 mps 733 mmHg 92%
    04:00 +7°C° 0 mm 5 mps 733 mmHg 92%
    05:00 +7°C° 0 mm 5 mps 733 mmHg 92%
    06:00 +7°C° 0 mm 5 mps 733 mmHg 92%
    07:00 +8°C° 0 mm 6 mps 733 mmHg 87%
    08:00 +9°C° 0 mm 6 mps 733 mmHg 82%
    09:00 +10°C° 0 mm 6 mps 733 mmHg 77%
    10:00 +11°C° 0.1 mm 7 mps 733 mmHg 70%
    11:00 +12°C° 0.1 mm 7 mps 733 mmHg 63%
    12:00 +13°C° 0.1 mm 8 mps 732 mmHg 56%
    13:00 +13°C° 0 mm 8 mps 732 mmHg 54%
    14:00 +13°C° 0 mm 8 mps 732 mmHg 52%
    15:00 +13°C° 0 mm 8 mps 732 mmHg 50%
    16:00 +12°C° 0 mm 7 mps 732 mmHg 54%
    17:00 +11°C° 0 mm 6 mps 732 mmHg 58%
    18:00 +11°C° 0 mm 4 mps 732 mmHg 62%
    19:00 +10°C° 0 mm 4 mps 733 mmHg 65%
    20:00 +8°C° 0 mm 4 mps 733 mmHg 67%
    21:00 +8°C° 0 mm 4 mps 733 mmHg 69%
    22:00 +7°C° 0 mm 4 mps 733 mmHg 70%
    23:00 +7°C° 0 mm 4 mps 733 mmHg 71%

    Day after tomorrow, 18 September, Wednesday

    Time Temperature Precipitation Wind Pressure Humidity
    00:00 +7°C° 0 mm 3 mps 733 mmHg 72%
    01:00 +7°C° 0 mm 3 mps 733 mmHg 74%
    02:00 +7°C° 0 mm 3 mps 733 mmHg 75%
    03:00 +7°C° 0 mm 3 mps 733 mmHg 76%
    04:00 +7°C° 0 mm 3 mps 733 mmHg 77%
    05:00 +7°C° 0 mm 3 mps 733 mmHg 78%
    06:00 +7°C° 0 mm 3 mps 733 mmHg 79%
    07:00 +7°C° 0.1 mm 4 mps 733 mmHg 77%
    08:00 +8°C° 0.1 mm 5 mps 733 mmHg 74%
    09:00 +9°C° 0.1 mm 5 mps 733 mmHg 72%
    10:00 +10°C° 0.2 mm 5 mps 733 mmHg 68%
    11:00 +12°C° 0.2 mm 5 mps 732 mmHg 64%
    12:00 +12°C° 0.2 mm 5 mps 732 mmHg 61%
    13:00 +13°C° 0.3 mm 5 mps 732 mmHg 61%
    14:00 +13°C° 0.3 mm 5 mps 732 mmHg 61%
    15:00 +13°C° 0.3 mm 5 mps 732 mmHg 62%
    16:00 +12°C° 0.3 mm 4 mps 732 mmHg 66%
    17:00 +11°C° 0.3 mm 3 mps 731 mmHg 70%
    18:00 +10°C° 0.3 mm 3 mps 731 mmHg 75%
    19:00 +10°C° 0.2 mm 2 mps 730 mmHg 77%
    20:00 +10°C° 0.2 mm 2 mps 730 mmHg 80%
    21:00 +9°C° 0.2 mm 2 mps 730 mmHg 82%
    22:00 +9°C° 0.3 mm 2 mps 729 mmHg 85%
    23:00 +9°C° 0.3 mm 2 mps 728 mmHg 87%

    19 September, Thursday

    Time Temperature Precipitation Wind Pressure Humidity
    00:00 +10°C° 0.3 mm 1 mps 728 mmHg 90%
    01:00 +8°C° 0.9 mm 2 mps 728 mmHg 91%
    02:00 +8°C° 0.9 mm 2 mps 728 mmHg 92%
    03:00 +8°C° 0.9 mm 2 mps 728 mmHg 93%
    04:00 +8°C° 1.2 mm 3 mps 728 mmHg 92%
    05:00 +7°C° 1.2 mm 5 mps 729 mmHg 92%
    06:00 +7°C° 1.2 mm 6 mps 729 mmHg 91%
    07:00 +7°C° 0.4 mm 6 mps 730 mmHg 90%
    08:00 +7°C° 0.4 mm 6 mps 731 mmHg 88%
    09:00 +8°C° 0.4 mm 6 mps 732 mmHg 86%
    10:00 +8°C° 0.2 mm 7 mps 733 mmHg 84%
    11:00 +8°C° 0.2 mm 7 mps 734 mmHg 81%
    12:00 +9°C° 0.2 mm 7 mps 735 mmHg 79%
    13:00 +9°C° 0.3 mm 7 mps 736 mmHg 78%
    14:00 +9°C° 0.3 mm 6 mps 736 mmHg 76%
    15:00 +9°C° 0.3 mm 6 mps 737 mmHg 75%
    16:00 +8°C° 0.3 mm 5 mps 737 mmHg 78%
    17:00 +7°C° 0.3 mm 4 mps 738 mmHg 81%
    18:00 +7°C° 0.3 mm 4 mps 738 mmHg 84%
    19:00 +7°C° 0 mm 3 mps 739 mmHg 86%
    20:00 +5°C° 0 mm 3 mps 739 mmHg 87%
    21:00 +4°C° 0 mm 3 mps 740 mmHg 89%
    22:00 +5°C° 0 mm 2 mps 740 mmHg 88%
    23:00 +4°C° 0 mm 2 mps 740 mmHg 88%

    20 September, Friday

    Time Temperature Precipitation Wind Pressure Humidity
    00:00 +4°C° 0 mm 2 mps 740 mmHg 87%
    01:00 +4°C° 0 mm 2 mps 740 mmHg 88%
    02:00 +3°C° 0 mm 2 mps 740 mmHg 88%
    03:00 +3°C° 0 mm 2 mps 740 mmHg 89%
    04:00 +3°C° 0 mm 2 mps 741 mmHg 89%
    05:00 +4°C° 0 mm 1 mps 741 mmHg 90%
    06:00 +4°C° 0 mm 1 mps 741 mmHg 90%
    07:00 +5°C° 0 mm 1 mps 741 mmHg 85%
    08:00 +6°C° 0 mm 1 mps 741 mmHg 79%
    09:00 +8°C° 0 mm 1 mps 741 mmHg 74%
    10:00 +7°C° 0.1 mm 2 mps 741 mmHg 76%
    11:00 +7°C° 0.1 mm 2 mps 741 mmHg 79%
    12:00 +7°C° 0.1 mm 2 mps 741 mmHg 81%
    13:00 +7°C° 0 mm 2 mps 741 mmHg 79%
    14:00 +7°C° 0 mm 2 mps 741 mmHg 77%
    15:00 +7°C° 0 mm 2 mps 741 mmHg 75%
    16:00 +7°C° 0.1 mm 2 mps 741 mmHg 76%
    17:00 +7°C° 0.1 mm 2 mps 741 mmHg 77%
    18:00 +6°C° 0.1 mm 2 mps 741 mmHg 78%
    19:00 +5°C° 0 mm 2 mps 741 mmHg 78%
    20:00 +5°C° 0 mm 2 mps 742 mmHg 79%
    21:00 +4°C° 0 mm 2 mps 742 mmHg 80%
    22:00 +4°C° 0 mm 1 mps 742 mmHg 80%
    23:00 +4°C° 0 mm 1 mps 742 mmHg 80%

    21 September, Saturday

    Time Temperature Precipitation Wind Pressure Humidity
    00:00 +4°C° 0 mm 1 mps 742 mmHg 80%
    01:00 +3°C° 0 mm 1 mps 742 mmHg 81%
    02:00 +3°C° 0 mm 1 mps 742 mmHg 81%
    03:00 +3°C° 0 mm 1 mps 742 mmHg 82%
    04:00 +3°C° 0 mm 1 mps 742 mmHg 84%
    05:00 +2°C° 0 mm 1 mps 742 mmHg 85%
    06:00 +2°C° 0 mm 1 mps 742 mmHg 87%
    07:00 +3°C° 0 mm 2 mps 743 mmHg 82%
    08:00 +4°C° 0 mm 2 mps 743 mmHg 77%
    09:00 +5°C° 0 mm 3 mps 743 mmHg 72%
    10:00 +7°C° 0 mm 3 mps 743 mmHg 66%
    11:00 +8°C° 0 mm 3 mps 743 mmHg 60%
    12:00 +8°C° 0 mm 3 mps 743 mmHg 55%
    13:00 +9°C° 0 mm 3 mps 743 mmHg 52%
    14:00 +9°C° 0 mm 3 mps 743 mmHg 50%
    15:00 +9°C° 0 mm 3 mps 742 mmHg 47%
    16:00 +8°C° 0 mm 3 mps 743 mmHg 52%
    17:00 +7°C° 0 mm 3 mps 743 mmHg 57%
    18:00 +4°C° 0 mm 3 mps 743 mmHg 62%
    19:00 +4°C° 0 mm 3 mps 743 mmHg 65%
    20:00 +3°C° 0 mm 3 mps 744 mmHg 67%
    21:00 +3°C° 0 mm 2 mps 744 mmHg 70%
    22:00 +2°C° 0 mm 2 mps 744 mmHg 73%
    23:00 +2°C° 0 mm 2 mps 744 mmHg 76%
    Show more